1504339200.37,31154,21.31,73716.3,10.39,3.15,2.51,0,*45
1504339201.58,31155,21.31,73718.8,10.39,2.89,2.27,0,*41
1504339202.77,31156,21.31,73716.3,10.39,2.99,2.65,0,*45
1504339203.98,31157,21.31,73716.8,10.39,2.43,2.27,0,*45
1504339205.21,31158,21.31,73712.8,10.37,2.61,2.39,0,*4B
1504339206.45,31159,21.31,73716.0,10.37,3.25,3.15,0,*44
1504339207.68,31160,21.31,73716.5,10.37,3.93,3.67,0,*46
1504339208.89,31161,21.31,73718.8,10.35,4.37,4.23,0,*4B
1504339210.12,31162,21.31,73718.0,10.35,4.15,4.01,0,*48
1504339211.35,31163,21.31,73716.3,10.35,3.79,3.63,0,*47
1504339212.58,31164,21.31,73720.5,10.35,3.55,3.45,0,*4A
1504339213.83,31165,21.31,73720.5,10.35,3.79,3.67,0,*45
1504339215.05,31166,21.31,73716.5,10.35,4.01,4.11,0,*48
1504339216.26,31167,21.31,73718.8,10.35,3.55,3.81,0,*41
1504339217.48,31168,21.31,73716.3,10.35,3.53,3.55,0,*41
1504339218.73,31169,21.31,73722.3,10.35,3.19,3.07,0,*49
1504339219.98,31170,21.31,73724.0,10.37,2.89,2.85,0,*40
1504339221.2,31171,21.31,73726.5,10.35,3.55,3.53,0,*49
1504339222.45,31172,21.31,73722.8,10.35,3.33,3.07,0,*4B
1504339223.69,31173,21.31,73720.8,10.37,3.37,2.99,0,*4A
1504339224.92,31174,21.31,73724.5,10.37,2.89,2.61,0,*4E
1504339226.16,31175,21.31,73722.5,10.37,2.27,2.13,0,*4E
1504339227.38,31176,21.31,73724.5,10.39,0.83,0.79,0,*41
1504339228.62,31177,21.31,73722.8,10.37,0.33,0.67,0,*4A
1504339229.86,31178,21.31,73722.8,10.37,0.25,0.67,0,*42
1504339231.08,31179,21.31,73720.0,10.37,0.01,0.55,0,*74
1504339232.31,31180,21.31,73720.8,10.37,-0.49,0.59,0,*6F
1504339233.55,31181,21.31,73716.5,10.39,-1.47,0.55,0,*53
1504339234.81,31182,21.31,73718.5,10.37,-4.77,-1.47,0,*47
1504339236.05,31183,21.31,73716.0,10.37,-4.93,-1.79,0,*41
1504339237.24,31184,21.31,73712.8,10.33,-3.79,-0.69,0,*71
1504339238.47,31185,21.31,73712.3,10.33,-1.83,1.25,0,*63
1504339239.67,31186,21.31,73708.8,10.33,-0.03,3.11,0,*6C
1504339240.89,31187,21.31,73714.8,10.35,0.95,3.55,0,*79
1504339242.12,31188,21.31,73712.8,10.35,1.67,3.55,0,*4A
1504339243.36,31189,21.31,73712.5,10.35,2.73,3.53,0,*4B
1504339244.62,31190,21.31,73708.5,10.35,2.85,3.03,0,*4F
1504339245.87,31191,21.31,73710.5,10.35,2.47,2.39,0,*48
1504339247.1,31192,21.31,73710.3,10.33,1.63,1.55,0,*41
1504339248.32,31193,21.31,73710.8,10.33,2.21,1.55,0,*45
1504339249.52,31194,21.31,73712.5,10.33,0.21,-1.51,0,*59
1504339250.71,31195,21.31,73708.5,10.29,-1.29,-3.31,0,*43
1504339251.93,31196,21.31,73710.8,10.29,-1.47,-3.11,0,*4A
1504339253.17,31197,21.31,73710.0,10.25,-2.51,-3.59,0,*4F
1504339254.38,31198,21.31,73710.0,10.23,-1.55,-2.43,0,*4B
1504339255.58,31199,21.31,73706.8,10.17,-1.71,-2.35,0,*4A
1504339256.82,31200,21.31,73706.3,10.15,-0.41,-1.01,0,*7D
1504339258.07,31201,21.31,73710.8,10.15,0.83,0.21,0,*41
1504339259.3,31202,21.31,73712.3,10.11,0.51,0.05,0,*7F
1504339260.5,31203,21.31,73712.8,10.13,1.75,1.51,0,*4B
1504339261.71,31204,21.31,73714.3,10.13,2.17,1.41,0,*4A
1504339262.91,31205,21.31,73716.3,10.13,1.79,0.17,0,*72
1504339264.15,31206,21.31,73714.0,10.11,0.97,-1.05,0,*5D
1504339265.39,31207,21.38,73716.3,10.11,0.17,-1.71,0,*57
1504339266.6,31208,21.31,73714.3,10.09,-0.11,-1.95,0,*70
1504339267.84,31209,21.31,73714.8,10.09,-0.93,-2.47,0,*77
1504339269.06,31210,21.31,73712.3,10.05,-0.57,-1.91,0,*73
1504339270.25,31211,21.31,73708.5,10.03,-0.19,-1.29,0,*7D
1504339271.43,31212,21.31,73708.5,10.03,0.67,-0.07,0,*57
1504339272.67,31213,21.31,73708.5,10.03,1.29,0.71,0,*71
1504339273.92,31214,21.31,73710.5,10.01,1.25,0.91,0,*76
1504339275.17,31215,21.31,73710.0,10.01,2.21,1.97,0,*47
1504339276.38,31216,21.31,73708.5,10.01,2.65,2.65,0,*4A
1504339277.63,31217,21.31,73712.0,10.01,3.19,3.19,0,*4B
1504339278.83,31218,21.31,73710.0,9.99,3.29,3.15,0,*72
1504339280.06,31219,21.31,73710.0,10.01,3.63,3.45,0,*41
1504339281.24,31220,21.31,73712.0,9.99,3.59,3.25,0,*7D
1504339282.48,31221,21.31,73708.3,9.99,3.75,3.41,0,*70
1504339283.68,31222,21.31,73712.8,9.99,3.33,2.91,0,*7D
1504339284.9,31223,21.31,73712.5,9.95,3.49,3.23,0,*75
1504339286.08,31224,21.31,73710.0,9.95,3.85,3.59,0,*7F
1504339287.28,31225,21.31,73708.0,9.95,3.81,3.53,0,*70
1504339288.53,31226,21.31,73710.8,9.93,3.49,3.45,0,*76
1504339289.71,31227,21.31,73712.5,9.95,3.81,3.63,0,*71
1504339290.9,31228,21.31,73708.5,9.93,4.49,4.49,0,*74
1504339292.15,31229,21.31,73712.5,9.93,4.01,4.01,0,*75
1504339293.39,31230,21.31,73708.5,9.93,3.19,3.11,0,*75
1504339294.62,31231,21.31,73708.8,9.93,2.61,2.73,0,*7F
1504339295.84,31232,21.31,73708.3,9.91,2.73,2.85,0,*74
1504339297.11,31233,21.31,73706.5,9.89,3.07,3.15,0,*76
1504339298.33,31234,21.31,73708.5,9.85,2.61,2.81,0,*70
1504339299.56,31235,21.38,73712.5,9.85,3.49,3.59,0,*7E
1504339300.8,31236,21.31,73706.8,9.85,3.19,3.37,0,*70
1504339302.06,31237,21.31,73706.5,9.85,3.67,3.79,0,*72
1504339303.29,31238,21.31,73706.3,9.85,4.05,4.15,0,*73
1504339304.49,31239,21.31,73704.8,9.83,3.81,3.79,0,*72
1504339305.67,31240,21.31,73704.0,9.83,3.93,3.89,0,*70
1504339306.91,31241,21.31,73704.5,9.83,4.63,4.71,0,*79
1504339308.12,31242,21.31,73702.3,9.83,4.53,4.63,0,*7A
1504339309.3,31243,21.31,73704.0,9.83,3.93,3.81,0,*7B
1504339310.5,31244,21.31,73706.5,9.83,3.89,3.79,0,*70
1504339311.73,31245,21.31,73704.3,9.83,3.79,3.79,0,*7E
1504339312.96,31246,21.31,73704.0,9.83,3.71,3.67,0,*7A
1504339314.21,31247,21.31,73704.0,9.81,3.97,3.79,0,*7E
1504339315.41,31248,21.38,73706.0,9.81,4.11,4.15,0,*75
1504339316.62,31249,21.31,73704.8,9.83,4.27,4.31,0,*75
1504339317.82,31250,21.31,73704.3,9.83,3.81,3.79,0,*7D
1504339319.08,31251,21.31,73704.0,9.81,4.05,4.05,0,*79
1504339320.28,31252,21.31,73706.5,9.81,4.45,4.45,0,*7A
1504339321.48,31253,21.31,73704.0,9.81,4.49,4.57,0,*74
1504339322.73,31254,21.31,73710.3,9.81,3.79,3.75,0,*70
1504339323.96,31255,21.31,73708.0,9.83,2.51,2.47,0,*78
1504339325.21,31256,21.31,73708.3,9.81,2.85,2.85,0,*7E
1504339326.45,31257,21.31,73708.5,9.81,3.19,3.23,0,*76
1504339327.65,31258,21.31,73706.8,9.79,3.55,3.67,0,*76
1504339328.83,31259,21.31,73710.8,9.79,3.85,3.89,0,*7A
1504339330.03,31260,21.31,73708.8,9.79,3.97,4.23,0,*74
1504339331.21,31261,21.38,73710.0,9.79,4.23,4.37,0,*78
1504339332.42,31262,21.31,73710.0,9.79,4.49,4.67,0,*72
1504339333.62,31263,21.31,73706.8,9.81,4.11,4.23,0,*79
1504339334.87,31264,21.38,73710.5,9.81,3.19,3.15,0,*73
1504339336.1,31265,21.31,73708.5,9.79,3.23,3.33,0,*78
1504339337.33,31266,21.31,73710.3,9.77,4.11,4.31,0,*76
1504339338.54,31267,21.31,73708.5,9.79,4.81,4.97,0,*7C
1504339339.74,31268,21.31,73708.3,9.79,4.81,4.93,0,*77
1504339340.98,31269,21.38,73712.0,9.79,4.75,4.97,0,*79
1504339342.23,31270,21.31,73710.0,9.81,4.75,4.93,0,*72
1504339343.43,31271,21.38,73712.0,9.81,4.45,4.49,0,*77
1504339344.66,31272,21.31,73710.3,9.83,4.63,4.71,0,*79
1504339345.9,31273,21.31,73710.0,9.83,4.63,4.79,0,*70
1504339347.06,31274,21.31,73708.3,9.83,3.55,3.55,0,*7C
1504339348.26,31275,21.31,73706.8,9.81,4.45,4.49,0,*73
1504339349.49,31276,21.31,73710.0,9.81,4.05,4.11,0,*79
1504339350.7,31277,21.38,73714.3,9.81,4.15,4.37,0,*7D
1504339351.92,31278,21.38,73714.3,9.81,3.97,4.15,0,*7F
1504339353.11,31279,21.31,73710.8,9.81,3.55,3.63,0,*76
1504339354.34,31280,21.31,73710.5,9.81,4.05,4.15,0,*74
1504339355.53,31281,21.38,73710.8,9.79,4.15,4.33,0,*77
1504339356.74,31282,21.31,73710.5,9.79,4.71,4.85,0,*7B
1504339357.96,31283,21.31,73710.5,9.81,3.85,3.97,0,*75
1504339359.17,31284,21.31,73708.3,9.81,4.23,4.37,0,*74
1504339360.38,31285,21.31,73706.0,9.79,3.89,4.05,0,*74
1504339361.58,31286,21.31,73708.3,9.79,4.05,4.27,0,*74
1504339362.8,31287,21.31,73706.3,9.77,3.93,4.01,0,*77
1504339364.06,31288,21.38,73710.3,9.77,3.71,3.75,0,*70
1504339365.28,31289,21.38,73712.3,9.77,3.75,3.85,0,*7A
1504339366.51,31290,21.31,73704.5,9.77,3.71,3.81,0,*72
1504339367.72,31291,21.31,73710.0,9.73,3.81,4.07,0,*71
1504339368.92,31292,21.31,73708.8,9.73,4.19,4.37,0,*77
1504339370.15,31293,21.31,73710.3,9.73,4.49,4.67,0,*76
1504339371.38,31294,21.38,73712.5,9.73,4.49,4.63,0,*75
1504339372.6,31295,21.38,73710.8,9.73,4.49,4.59,0,*7D
1504339373.84,31296,21.31,73708.0,9.73,4.53,4.75,0,*7B
1504339375.08,31297,21.31,73710.0,9.73,4.53,4.75,0,*7A
1504339376.33,31298,21.31,73708.0,9.77,4.63,4.79,0,*7E
1504339377.53,31299,21.31,73708.3,9.77,4.45,4.53,0,*73
1504339378.78,31300,21.31,73712.3,9.77,3.75,3.75,0,*75
1504339380.01,31301,21.38,73712.8,9.77,3.59,3.49,0,*75
1504339381.27,31302,21.31,73710.0,9.73,2.17,2.01,0,*74
1504339382.49,31303,21.31,73710.8,9.67,2.09,2.09,0,*77
1504339383.7,31304,21.38,73714.0,9.67,2.51,2.61,0,*73
1504339384.93,31305,21.38,73708.0,9.63,2.89,2.89,0,*75
1504339386.19,31306,21.38,73708.8,9.61,1.33,1.33,0,*74
1504339387.37,31307,21.31,73706.5,9.59,1.05,1.01,0,*7A
1504339388.59,31308,21.31,73704.3,9.55,1.25,1.13,0,*78
1504339389.84,31309,21.31,73706.3,9.49,2.13,1.97,0,*7E
1504339391.06,31310,21.31,73704.0,9.49,1.43,1.41,0,*7B
1504339392.28,31311,21.38,73706.5,9.45,1.01,0.87,0,*4B
1504339393.52,31312,21.31,73706.3,9.41,1.21,0.97,0,*4F
1504339394.77,31313,21.38,73704.3,9.39,1.33,1.25,0,*7A
1504339395.94,31314,21.31,73704.3,9.37,1.79,1.79,0,*74
1504339397.19,31315,21.31,73700.8,9.35,1.47,1.51,0,*70
1504339398.41,31316,21.38,73706.5,9.33,2.69,2.81,0,*74
1504339399.64,31317,21.31,73700.5,9.33,2.85,3.07,0,*78
1504339400.86,31318,21.31,73704.3,9.33,3.53,3.79,0,*74
1504339402.06,31319,21.31,73702.3,9.33,3.97,4.23,0,*75
1504339403.25,31320,21.31,73704.3,9.33,4.01,4.27,0,*73
1504339404.45,31321,21.31,73704.5,9.33,4.01,4.33,0,*77
1504339405.66,31322,21.31,73700.8,9.35,4.19,4.57,0,*79
1504339406.85,31323,21.38,73706.5,9.35,4.19,4.49,0,*77
1504339408.07,31324,21.38,73704.3,9.35,3.97,4.19,0,*74
1504339409.29,31325,21.31,73702.5,9.35,3.97,4.23,0,*7C
1504339410.52,31326,21.31,73702.3,9.35,4.57,4.79,0,*7B
1504339411.74,31327,21.31,73702.5,9.39,4.81,5.05,0,*77
1504339412.96,31328,21.38,73704.5,9.39,4.63,4.81,0,*79
1504339414.18,31329,21.31,73704.8,9.39,3.71,3.89,0,*73
1504339415.41,31330,21.31,73704.3,9.41,4.45,4.63,0,*77
1504339416.64,31331,21.38,73710.8,9.39,4.23,4.31,0,*7E
1504339417.84,31332,21.31,73706.8,9.39,4.53,4.53,0,*7E
1504339419.07,31333,21.31,73708.8,9.41,4.41,4.31,0,*77
1504339420.26,31334,21.31,73708.8,9.43,4.37,4.07,0,*76
1504339421.47,31335,21.31,73706.5,9.43,3.63,3.41,0,*74
1504339422.68,31336,21.31,73704.3,9.43,3.41,3.25,0,*75
1504339423.89,31337,21.31,73704.3,9.43,3.63,3.41,0,*76
1504339425.09,31338,21.31,73702.8,9.45,3.89,3.59,0,*72
1504339426.33,31339,21.31,73700.8,9.45,3.67,3.29,0,*74
1504339427.53,31340,21.31,73700.3,9.45,2.95,2.35,0,*7A
1504339428.73,31341,21.31,73700.0,9.45,2.35,1.75,0,*76
1504339429.98,31342,21.31,73700.5,9.45,1.47,0.75,0,*42
1504339431.23,31343,21.31,73702.5,9.45,2.09,1.51,0,*7D
1504339432.46,31344,21.31,73696.8,9.41,2.55,2.27,0,*75
1504339433.67,31345,21.31,73698.8,9.43,3.89,3.75,0,*70
1504339434.87,31346,21.31,73700.0,9.41,4.19,4.11,0,*7A
1504339436.08,31347,21.31,73700.0,9.41,3.93,3.81,0,*70
1504339437.29,31348,21.31,73702.5,9.41,3.85,3.93,0,*7B
1504339438.47,31349,21.31,73706.0,9.43,4.11,4.23,0,*7E
1504339439.68,31350,21.38,73706.0,9.43,4.23,4.31,0,*74
1504339440.85,31351,21.31,73704.3,9.43,4.19,4.19,0,*76
1504339442.11,31352,21.31,73706.3,9.41,3.37,3.45,0,*72
1504339443.31,31353,21.31,73704.3,9.41,3.55,3.63,0,*73
1504339444.51,31354,21.31,73708.8,9.41,4.15,4.19,0,*7D
1504339445.74,31355,21.31,73712.5,9.41,3.55,3.75,0,*72
1504339446.96,31356,21.31,73710.0,9.39,3.33,3.89,0,*7D
1504339448.16,31357,21.38,73704.0,9.39,2.95,3.89,0,*71
1504339449.4,31358,21.31,73702.0,9.39,1.67,2.17,0,*76
1504339450.62,31359,21.38,73702.5,9.39,-0.15,0.29,0,*51
1504339451.81,31360,21.38,73702.0,9.37,-0.07,0.29,0,*66
1504339452.99,31361,21.31,73700.5,9.37,0.09,0.29,0,*44
1504339454.19,31362,21.31,73700.5,9.37,-0.15,-0.27,0,*74
1504339455.41,31363,21.31,73700.8,9.39,-0.19,0.21,0,*5C
1504339456.66,31364,21.31,73702.8,9.41,-0.23,0.33,0,*5E
1504339457.91,31365,21.31,73700.8,9.41,0.87,0.75,0,*7E
1504339459.11,31366,21.38,73706.5,9.43,0.47,-0.49,0,*51
1504339460.37,31367,21.38,73700.8,9.41,-0.89,-0.97,0,*7E
1504339461.59,31368,21.31,73702.3,9.39,-0.45,-0.89,0,*71
1504339462.77,31369,21.31,73700.5,9.39,0.09,-0.53,0,*62
1504339463.96,31370,21.31,73706.3,9.37,-1.21,-2.43,0,*71
1504339465.14,31371,21.38,73708.8,9.37,-2.39,-3.07,0,*7B
1504339466.37,31372,21.31,73706.0,9.35,-0.85,-1.33,0,*4A
1504339467.57,31373,21.31,73706.5,9.35,-0.33,-0.11,0,*77
1504339468.75,31374,21.31,73706.5,9.37,0.43,0.47,0,*76
1504339469.97,31375,21.31,73710.5,9.37,0.41,0.21,0,*75
1504339471.14,31376,21.31,73710.0,9.37,-0.15,-0.29,0,*7F
1504339472.34,31377,21.31,73708.5,9.37,-0.77,-1.91,0,*48
1504339473.56,31378,21.31,73700.8,9.37,-4.33,-5.23,0,*7E
1504339474.77,31379,21.31,73706.5,9.33,-5.11,-5.39,0,*71
1504339476.01,31380,21.31,73702.5,9.33,-3.71,-4.01,0,*7D
1504339477.25,31381,21.31,73704.0,9.27,-3.07,-2.55,0,*7F
1504339478.45,31382,21.31,73704.3,9.25,-3.79,-3.95,0,*7A
1504339479.72,31383,21.31,73706.3,9.23,-5.15,-5.03,0,*78
1504339480.96,31384,21.31,73706.8,9.21,-3.43,-2.67,0,*7D
1504339482.16,31385,21.31,73704.3,9.21,-1.71,-0.73,0,*48
1504339483.39,31386,21.31,73704.5,9.21,-0.97,-0.85,0,*7B
1504339484.63,31387,21.38,73710.5,9.19,-1.71,-1.35,0,*72
1504339485.87,31388,21.31,73704.8,9.21,-1.83,-0.93,0,*46
1504339487.1,31389,21.31,73708.3,9.23,-1.17,-0.97,0,*4C
1504339488.35,31390,21.31,73710.0,9.23,-2.71,-1.67,0,*79
1504339489.58,31391,21.31,73706.0,9.23,-2.07,-0.69,0,*46
1504339490.77,31392,21.38,73710.0,9.21,-2.19,-0.69,0,*48
1504339492.0,31393,21.31,73706.3,9.21,-3.43,-1.95,0,*75
1504339493.25,31394,21.31,73708.3,9.19,-2.99,-1.39,0,*79
1504339494.47,31395,21.38,73716.3,9.15,-0.29,0.91,0,*53
1504339495.7,31396,21.31,73714.5,9.17,-1.05,0.37,0,*61
1504339496.91,31397,21.38,73712.5,9.15,-1.63,-0.19,0,*43
1504339498.14,31398,21.31,73712.0,9.15,-0.53,0.59,0,*57
1504339499.38,31399,21.31,73704.5,9.11,-2.23,-1.43,0,*70
1504339500.6,31400,21.31,73700.3,9.05,-1.51,-1.01,0,*72
1504339501.84,31401,21.31,73696.3,9.05,0.25,0.59,0,*7D
1504339503.08,31402,21.31,73692.5,9.01,0.63,0.75,0,*76
1504339504.31,31403,21.31,73696.8,9.01,1.01,0.91,0,*48
1504339505.5,31404,21.38,73700.0,8.99,0.95,1.01,0,*4B
1504339506.75,31405,21.38,73702.0,8.97,1.13,1.13,0,*78
1504339507.99,31406,21.31,73700.3,8.97,0.37,0.47,0,*7C
1504339509.23,31407,21.31,73700.8,8.93,0.75,0.91,0,*74
1504339510.45,31408,21.31,73704.3,8.91,1.47,1.67,0,*71
1504339511.67,31409,21.31,73706.0,8.89,2.35,2.55,0,*7D
1504339512.85,31410,21.31,73704.8,8.91,2.91,2.91,0,*7A
1504339514.1,31411,21.31,73708.3,8.89,2.77,2.69,0,*7D
1504339515.27,31412,21.31,73704.3,8.91,2.91,2.95,0,*7C
1504339516.5,31413,21.31,73706.5,8.89,3.89,4.01,0,*77
1504339517.71,31414,21.31,73704.5,8.91,4.33,4.71,0,*78
1504339518.91,31415,21.31,73702.3,8.95,4.37,4.79,0,*71
1504339520.12,31416,21.31,73698.8,8.95,4.11,4.63,0,*7D
1504339521.29,31417,21.31,73696.3,8.95,4.27,4.85,0,*71
1504339522.5,31418,21.31,73700.8,8.97,3.85,4.57,0,*7C
1504339523.7,31419,21.31,73702.0,8.99,3.75,4.23,0,*7F
1504339524.9,31420,21.38,73702.8,8.99,4.41,4.63,0,*71
1504339526.07,31421,21.31,73702.8,8.99,3.81,3.85,0,*74
1504339527.33,31422,21.31,73696.5,9.01,3.23,3.41,0,*77
1504339528.55,31423,21.31,73696.3,8.99,3.37,3.53,0,*70
1504339529.77,31424,21.31,73698.5,8.97,3.29,3.53,0,*76
1504339530.99,31425,21.31,73696.3,8.97,3.81,3.97,0,*7D
1504339532.25,31426,21.31,73698.8,8.97,3.41,3.71,0,*7A
1504339533.45,31427,21.31,73692.8,8.99,3.29,3.71,0,*7B
1504339534.66,31428,21.31,73698.3,8.97,4.07,4.33,0,*70
1504339535.85,31429,21.38,73700.3,8.97,3.63,3.85,0,*7E
1504339537.05,31430,21.31,73702.0,8.97,3.85,4.11,0,*74
1504339538.25,31431,21.31,73702.0,8.97,3.63,3.81,0,*73
1504339539.45,31432,21.31,73700.5,8.97,4.19,4.53,0,*72
1504339540.65,31433,21.31,73700.3,8.97,4.11,4.23,0,*7C
1504339541.88,31434,21.31,73702.0,8.97,4.31,4.57,0,*7A
1504339543.08,31435,21.31,73704.0,8.99,4.45,4.67,0,*75
1504339544.31,31436,21.31,73702.0,8.99,5.01,4.93,0,*7C
1504339545.51,31437,21.31,73702.3,8.99,5.01,5.15,0,*72
1504339546.72,31438,21.31,73706.8,9.01,5.19,5.37,0,*74
1504339547.89,31439,21.31,73702.3,9.03,5.37,5.63,0,*7A
1504339549.06,31440,21.31,73702.3,9.03,5.19,5.45,0,*7C
1504339550.26,31441,21.38,73704.8,9.05,5.49,5.71,0,*79
1504339551.46,31442,21.31,73702.8,9.09,5.81,5.95,0,*78
1504339552.67,31443,21.38,73704.8,9.11,5.71,5.71,0,*75
1504339553.89,31444,21.31,73706.3,9.11,6.03,6.03,0,*72
1504339555.11,31445,21.31,73704.8,9.13,5.85,5.73,0,*78
1504339556.29,31446,21.31,73706.5,9.13,5.41,5.37,0,*73
1504339557.47,31447,21.31,73704.0,9.17,5.33,5.41,0,*72
1504339558.7,31448,21.31,73702.3,9.15,5.01,5.07,0,*7C
1504339559.92,31449,21.31,73704.8,9.15,5.19,5.23,0,*72
1504339561.09,31450,21.31,73704.3,9.17,5.23,5.29,0,*7B
1504339562.28,31451,21.38,73704.3,9.17,5.11,5.11,0,*70
1504339563.51,31452,21.31,73700.5,9.19,5.63,5.81,0,*71
1504339564.73,31453,21.31,73706.5,9.21,5.73,5.73,0,*77
1504339565.96,31454,21.31,73700.5,9.23,5.07,5.05,0,*70
1504339567.19,31455,21.38,73706.8,9.19,4.93,4.89,0,*71
1504339568.37,31456,21.31,73704.5,9.21,4.23,4.27,0,*76
1504339569.6,31457,21.31,73706.8,9.19,4.33,4.31,0,*7A
1504339570.78,31458,21.31,73704.0,9.21,5.07,5.07,0,*7C
1504339571.96,31459,21.31,73706.5,9.21,5.41,5.37,0,*7C
1504339573.16,31460,21.31,73706.0,9.21,5.51,5.49,0,*7E
1504339574.39,31461,21.31,73706.8,9.21,5.89,5.77,0,*77
1504339575.61,31462,21.31,73702.0,9.25,5.81,5.89,0,*79
1504339576.79,31463,21.31,73704.5,9.25,6.25,6.21,0,*74
1504339578.0,31464,21.31,73700.5,9.27,6.33,6.25,0,*72
1504339579.24,31465,21.31,73704.0,9.31,6.29,6.35,0,*7E
1504339580.5,31466,21.31,73702.5,9.31,6.35,6.17,0,*70
1504339581.7,31467,21.31,73706.5,9.33,6.21,6.17,0,*76
1504339582.91,31468,21.31,73704.8,9.37,6.35,6.21,0,*7D
1504339584.09,31469,21.31,73704.3,9.37,6.21,6.11,0,*7A
1504339585.32,31470,21.31,73704.8,9.39,6.25,6.13,0,*7A
1504339586.55,31471,21.31,73706.5,9.39,6.03,5.93,0,*74
1504339587.77,31472,21.31,73706.0,9.39,5.99,5.81,0,*74
1504339589.01,31473,21.31,73706.8,9.39,5.73,5.55,0,*78
1504339590.22,31474,21.31,73706.5,9.43,6.07,5.89,0,*73
1504339591.42,31475,21.31,73704.5,9.43,5.85,5.71,0,*7C
1504339592.61,31476,21.31,73706.3,9.43,5.41,5.11,0,*71
1504339593.84,31477,21.31,73700.8,9.41,4.75,4.45,0,*74
1504339595.1,31478,21.31,73706.3,9.41,4.97,4.75,0,*74
1504339596.33,31479,21.31,73702.5,9.41,4.85,4.63,0,*71
1504339597.54,31480,21.31,73706.3,9.41,5.15,5.07,0,*7C
1504339598.76,31481,21.31,73704.5,9.43,5.11,5.01,0,*7D
1504339599.99,31482,21.31,73706.0,9.41,4.85,4.67,0,*71
1504339601.19,31483,21.31,73704.0,9.41,4.41,4.15,0,*7D
1504339602.37,31484,21.31,73702.8,9.43,4.45,4.37,0,*7C
1504339603.61,31485,21.31,73704.3,9.41,4.15,4.05,0,*7B
1504339604.82,31486,21.31,73702.8,9.41,4.07,4.07,0,*79
1504339606.03,31487,21.31,73706.0,9.41,4.33,4.41,0,*7D
1504339607.23,31488,21.31,73702.5,9.41,4.27,4.27,0,*77
1504339608.44,31489,21.38,73704.5,9.41,4.15,4.19,0,*7A
1504339609.67,31490,21.31,73700.3,9.41,4.53,4.63,0,*7D
1504339610.88,31491,21.31,73704.3,9.43,4.57,4.71,0,*79
1504339612.09,31492,21.31,73706.5,9.43,4.81,5.05,0,*73
1504339613.29,31493,21.38,73704.8,9.45,4.33,4.49,0,*74
1504339614.53,31494,21.31,73704.0,9.45,4.31,4.57,0,*7E
1504339615.73,31495,21.31,73706.3,9.43,4.19,4.59,0,*7D
1504339616.91,31496,21.31,73704.8,9.43,3.89,4.23,0,*7D
1504339618.15,31497,21.31,73700.5,9.43,3.07,3.07,0,*7B
1504339619.37,31498,21.31,73702.3,9.43,3.07,3.29,0,*78
1504339620.55,31499,21.31,73702.5,9.43,3.59,3.89,0,*78
1504339621.76,31500,21.31,73704.0,9.41,4.07,4.41,0,*74
1504339622.97,31501,21.31,73702.3,9.43,4.37,4.67,0,*70
1504339624.18,31502,21.31,73706.5,9.43,4.45,4.67,0,*76
1504339625.36,31503,21.31,73706.5,9.43,4.23,4.45,0,*77
1504339626.54,31504,21.31,73706.8,9.43,3.89,4.19,0,*7E
1504339627.72,31505,21.31,73708.5,9.43,4.19,4.45,0,*78
1504339628.92,31506,21.31,73706.5,9.43,4.01,4.11,0,*73
1504339630.18,31507,21.31,73704.8,9.41,3.45,3.37,0,*74
1504339631.38,31508,21.31,73704.5,9.41,3.25,3.25,0,*7E
1504339632.64,31509,21.31,73704.8,9.41,2.55,2.51,0,*7B
1504339633.85,31510,21.31,73706.5,9.37,2.59,2.61,0,*7D
1504339635.08,31511,21.31,73706.8,9.37,2.59,2.51,0,*7F
1504339636.3,31512,21.31,73704.3,9.37,2.59,2.69,0,*77
1504339637.55,31513,21.31,73700.8,9.35,3.19,3.41,0,*7A
1504339638.78,31514,21.31,73700.3,9.33,3.41,3.67,0,*72
1504339639.98,31515,21.31,73702.3,9.33,3.19,3.29,0,*74
1504339641.15,31516,21.31,73698.0,9.33,3.63,3.63,0,*74
1504339642.35,31517,21.31,73700.8,9.33,3.89,3.79,0,*7A
1504339643.58,31518,21.31,73700.0,9.33,3.79,3.79,0,*7A
1504339644.84,31519,21.31,73700.3,9.35,3.75,3.67,0,*7E
1504339646.04,31520,21.38,73700.5,9.31,3.25,2.99,0,*75
1504339647.26,31521,21.31,73702.5,9.31,2.91,2.55,0,*7A
1504339648.51,31522,21.31,73708.3,9.31,3.53,3.03,0,*74
1504339649.75,31523,21.38,73708.8,9.31,2.09,0.51,0,*4F
1504339650.99,31524,21.31,73704.0,9.27,-0.27,-2.27,0,*42
1504339652.19,31525,21.31,73702.3,9.25,-0.15,-1.01,0,*47
1504339653.38,31526,21.31,73700.0,9.25,0.47,0.05,0,*46
1504339654.63,31527,21.31,73700.0,9.23,1.25,0.13,0,*43
1504339655.84,31528,21.31,73700.0,9.21,-0.23,-1.55,0,*4A
1504339657.05,31529,21.31,73690.3,9.21,-1.09,-2.83,0,*7A
1504339658.26,31530,21.31,73690.8,9.19,-1.25,-2.83,0,*77
1504339659.47,31531,21.31,73692.8,9.15,-1.51,-3.39,0,*79
1504339660.73,31532,21.31,73692.8,9.15,-0.89,-1.87,0,*49
1504339661.94,31533,21.31,73698.0,9.13,-0.73,-2.03,0,*44
1504339663.16,31534,21.38,73698.0,9.11,-0.57,-1.21,0,*44
1504339664.39,31535,21.31,73702.3,9.09,1.33,0.95,0,*41
1504339665.62,31536,21.31,73700.5,9.11,1.75,1.37,0,*70
1504339666.84,31537,21.31,73704.0,9.09,0.95,0.29,0,*79
1504339668.08,31538,21.31,73702.8,9.05,0.79,0.25,0,*74
1504339669.33,31539,21.31,73702.3,9.05,1.55,1.09,0,*75
1504339670.58,31540,21.31,73704.8,9.05,1.33,0.67,0,*42
1504339671.83,31541,21.38,73710.5,9.05,1.17,0.59,0,*48
1504339673.07,31542,21.31,73706.5,9.05,0.79,1.09,0,*46
1504339674.3,31543,21.31,73706.0,9.03,1.25,1.37,0,*74
1504339675.49,31544,21.31,73706.5,9.03,1.41,1.47,0,*76
1504339676.72,31545,21.31,73706.5,9.01,1.63,1.75,0,*74
1504339677.92,31546,21.31,73706.0,9.03,1.85,1.75,0,*7D
1504339679.13,31547,21.31,73708.3,9.03,1.29,1.01,0,*79
1504339680.3,31548,21.31,73706.0,9.05,0.43,0.05,0,*48
1504339681.55,31549,21.31,73704.3,9.05,0.91,0.55,0,*73
1504339682.8,31550,21.31,73706.8,9.05,1.29,0.59,0,*45
1504339684.05,31551,21.31,73704.3,9.05,0.79,0.21,0,*7F
1504339685.28,31552,21.31,73704.0,9.05,0.21,0.21,0,*71
1504339686.52,31553,21.31,73706.8,9.01,0.33,0.21,0,*77
1504339687.72,31554,21.31,73706.3,9.03,1.25,1.01,0,*77
1504339688.98,31555,21.31,73704.8,9.01,1.13,0.87,0,*4E
1504339690.23,31556,21.31,73708.0,9.01,0.91,0.29,0,*72
1504339691.47,31557,21.31,73706.5,9.01,1.47,0.79,0,*4C
1504339692.67,31558,21.31,73706.0,8.99,2.65,2.09,0,*75
1504339693.89,31559,21.31,73704.3,8.99,2.55,1.97,0,*73
1504339695.09,31560,21.31,73710.5,8.99,2.65,2.47,0,*74
1504339696.31,31561,21.31,73708.5,8.99,2.77,2.59,0,*79
1504339697.51,31562,21.31,73708.0,8.99,2.09,2.31,0,*7D
1504339698.74,31563,21.31,73708.5,8.99,1.85,2.17,0,*7F
1504339699.96,31564,21.31,73708.8,8.99,2.43,2.59,0,*7B
1504339701.13,31565,21.38,73716.3,8.99,2.99,2.91,0,*79
1504339702.36,31566,21.31,73714.8,8.99,2.47,2.55,0,*71
1504339703.58,31567,21.31,73714.3,8.99,2.55,2.59,0,*7F
1504339704.8,31568,21.31,73712.5,8.99,3.37,3.19,0,*70
1504339706.0,31569,21.31,73712.8,8.99,3.63,3.41,0,*7D
1504339707.2,31570,21.31,73712.8,8.99,4.11,4.01,0,*74
1504339708.36,31571,21.31,73714.5,8.99,3.59,3.63,0,*7D
1504339709.56,31572,21.31,73710.5,8.99,3.97,4.07,0,*79
1504339710.79,31573,21.31,73714.0,9.01,4.01,4.15,0,*73
1504339711.98,31574,21.31,73710.8,8.99,3.49,3.59,0,*70
1504339713.24,31575,21.31,73714.8,9.01,3.23,3.41,0,*74
1504339714.49,31576,21.31,73714.8,9.01,3.33,3.53,0,*75
1504339715.69,31577,21.31,73708.3,9.01,3.85,3.93,0,*75
1504339716.92,31578,21.31,73714.8,9.01,3.79,3.93,0,*79
1504339718.18,31579,21.31,73716.0,9.01,3.79,4.01,0,*74
1504339719.38,31580,21.31,73718.0,9.03,4.05,4.15,0,*79
1504339720.61,31581,21.31,73708.8,9.03,3.15,3.41,0,*78
1504339721.83,31582,21.31,73710.8,9.03,2.69,2.73,0,*71
1504339723.08,31583,21.31,73710.0,9.01,1.47,1.51,0,*7E
1504339724.33,31584,21.31,73714.0,9.01,2.13,2.09,0,*75
1504339725.53,31585,21.31,73712.8,8.99,0.97,0.75,0,*73
1504339726.74,31586,21.31,73714.3,8.99,0.83,0.87,0,*78